TimeCST,TemperatureF,Dew PointF,Humidity,Sea Level PressureIn,VisibilityMPH,Wind Direction,Wind SpeedMPH,Gust SpeedMPH,PrecipitationIn,Events,Conditions,WindDirDegrees,DateUTC
12:52 AM,60.1,55.0,83,29.92,10.0,South,8.1,-,N/A,,Clear,190,2013-01-28 06:52:00
1:52 AM,61.0,55.9,83,29.90,10.0,South,11.5,-,N/A,,Clear,170,2013-01-28 07:52:00
2:52 AM,57.9,55.9,93,29.90,10.0,SSE,11.5,-,N/A,,Partly Cloudy,150,2013-01-28 08:52:00
3:05 AM,59.0,57.2,94,29.95,10.0,SSE,10.4,-,N/A,,Mostly Cloudy,150,2013-01-28 09:05:00
3:52 AM,59.0,57.0,93,29.89,10.0,SSE,9.2,-,N/A,,Overcast,150,2013-01-28 09:52:00
4:52 AM,63.0,60.1,90,29.86,10.0,South,13.8,-,N/A,,Overcast,170,2013-01-28 10:52:00
5:52 AM,64.0,61.0,90,29.88,10.0,South,12.7,-,N/A,,Overcast,170,2013-01-28 11:52:00
6:52 AM,64.9,61.0,87,29.90,10.0,South,11.5,-,N/A,,Overcast,170,2013-01-28 12:52:00
7:22 AM,64.4,60.8,88,29.95,10.0,South,11.5,-,N/A,,Overcast,170,2013-01-28 13:22:00
7:52 AM,64.9,61.0,87,29.90,10.0,South,11.5,-,N/A,,Overcast,170,2013-01-28 13:52:00
8:52 AM,66.0,62.1,87,29.90,10.0,SSE,15.0,25.3,N/A,,Overcast,160,2013-01-28 14:52:00
9:52 AM,69.1,62.1,78,29.88,10.0,South,16.1,24.2,N/A,,Mostly Cloudy,180,2013-01-28 15:52:00
10:52 AM,72.0,61.0,68,29.87,10.0,South,23.0,34.5,N/A,,Partly Cloudy,180,2013-01-28 16:52:00
11:52 AM,75.0,60.1,60,29.86,10.0,SSW,21.9,28.8,N/A,,Partly Cloudy,200,2013-01-28 17:52:00
12:52 PM,78.1,59.0,52,29.82,10.0,South,24.2,34.5,N/A,,Scattered Clouds,190,2013-01-28 18:52:00
1:52 PM,78.1,57.0,48,29.78,10.0,SSW,24.2,34.5,N/A,,Partly Cloudy,210,2013-01-28 19:52:00
2:52 PM,79.0,57.0,47,29.76,10.0,SSW,20.7,33.4,N/A,,Partly Cloudy,200,2013-01-28 20:52:00
4:52 PM,77.0,55.0,47,29.75,10.0,SSW,20.7,29.9,N/A,,Clear,200,2013-01-28 22:52:00
5:52 PM,73.9,55.9,53,29.73,10.0,South,16.1,24.2,N/A,,Clear,180,2013-01-28 23:52:00
6:52 PM,71.1,55.9,59,29.75,10.0,South,9.2,-,N/A,,Clear,170,2013-01-29 00:52:00
7:52 PM,68.0,57.0,68,29.77,10.0,South,10.4,-,N/A,,Clear,180,2013-01-29 01:52:00
8:52 PM,66.9,57.9,73,29.77,10.0,SSE,12.7,-,N/A,,Clear,160,2013-01-29 02:52:00
9:52 PM,68.0,60.1,76,29.74,10.0,SSE,17.3,-,N/A,,Clear,160,2013-01-29 03:52:00
10:52 PM,66.9,61.0,81,29.74,10.0,SSE,16.1,-,N/A,,Clear,160,2013-01-29 04:52:00
11:52 PM,66.0,62.1,87,29.72,10.0,SSE,15.0,-,N/A,,Clear,160,2013-01-29 05:52:00